Regional Weather Roundup
Issued by NWS

Home | Current Version | Previous Version | Text Only | Print | Product List | Glossary On
Versions: 1 2 3 4 5 6 7 8 9 10 11 12 13 14 15 16 17 18 19 20 21 22 23 24 25 26 27
000
ASUS42 KFFC 271703
RWRGA
WEATHER ROUNDUP FOR GEORGIA
NATIONAL WEATHER SERVICE PEACHTREE CITY GA
100 PM EDT WED JUL 27 2016

NOTE: "FAIR" INDICATES FEW OR NO CLOUDS BELOW 12,000 FEET WITH NO
SIGNIFICANT WEATHER AND/OR OBSTRUCTIONS TO VISIBILITY.

* = USE WITH CAUTION. THE STATIONS MARKED WITH AN ASTERISK MAY NOT
REPORT WEATHER SUCH AS PRECIPITATION, FOG, OR THUNDER AND ARE NOT
QUALITY CONTROLLED BY NWS.

THE REMARK "TC" DENOTES TEMPERATURE READING IN DEGREES CELSIUS.

GAZ001>058-271800-
NORTH GEORGIA

CITY           SKY/WX    TMP DP  RH WIND       PRES   REMARKS
ATLANTA        PTSUNNY   86  71  60 W6        30.10S HX  91
ATHENS         MOSUNNY   93  72  50 SW7       30.07S HX 101
CHAMBLEE       PTSUNNY   85  70  60 SW7       30.10S
PEACHTREE CITY   N/A     86  71  60 MISG      30.10S HX  91
ROME           CLOUDY    86  70  58 S10       30.07S HX  90
WEST ATLANTA     N/A    N/A N/A N/A MISG      30.09F
GAINESVILLE    PTSUNNY   86  70  58 SW9       30.11R HX  90
CARTERSVILLE   CLOUDY    84  72  67 VRB3      30.09S


CITY           SKY/WX    TMP DP  RH WIND       PRES   REMARKS
DALTON*        PTSUNNY   88  72  58 SW6       30.05S HX  94
LAWRENCEVILLE* PTSUNNY   84  73  70 SW9       30.09R HX  91
MARIETTA       CLOUDY    83  72  70 SW6       30.10S
KENNESAW*      PTSUNNY   82  70  65 SW6       30.06S
CANTON*        MOSUNNY   84  63  48 SW9       30.12R
BLAIRSVILLE*     N/A    N/A N/A N/A MISG      30.12R
$$

GAZ059>098-102>109-271800-
CENTRAL GEORGIA

CITY           SKY/WX    TMP DP  RH WIND       PRES   REMARKS
AUGUSTA-BUSH   MOSUNNY   94  71  47 W8        30.03F HX 101
AUGUSTA-DANIEL PTSUNNY   94  72  48 VRB7      30.06F HX 102
COLUMBUS       PTSUNNY   86  69  56 W9        30.08F HX  90
MACON          PTSUNNY   89  69  51 W14       30.08F HX  93
ROBINS AFB     PTSUNNY   90  72  55 NW13      30.07F HX  97


CITY           SKY/WX    TMP DP  RH WIND       PRES   REMARKS
LAGRANGE*      CLOUDY    87  76  68 W7        30.10S HX  97
MILLEDGEVILLE* MOSUNNY   91  73  55 CALM      30.07F HX 100
$$

GAZ099>101-110>166-271800-
SOUTH GEORGIA

CITY           SKY/WX    TMP DP  RH WIND       PRES   REMARKS
SAVANNAH       MOSUNNY   93  72  50 W12       30.06F HX 101
VALDOSTA       MOSUNNY   90  73  57 CALM      30.10F HX  98
ALMA           PTSUNNY   91  70  49 SW9       30.09S HX  96
ST SIMONS      MOSUNNY   93  70  46 W10       30.08F HX  99
FT STEWART     MOSUNNY   92  71  50 W7        30.05F HX  99
ALBANY         PTSUNNY   90  71  53 W8        30.11F HX  96
HUNTER AFB     SUNNY     93  77  60 W8G18     30.04F HX 106
MOODY AFB      PTSUNNY   91  72  54 W10       30.10F HX  98
BRUNSWICK      PTSUNNY   91  75  59 W9        30.09S HX 102


CITY           SKY/WX    TMP DP  RH WIND       PRES   REMARKS
BAINBRIDGE*    SUNNY     91  70  49 W9        30.10F HX  97
MOULTRIE*      PTSUNNY   88  70  55 SW6       30.12S HX  92
VIDALIA*       MOSUNNY   93  68  43 SW10      30.08F HX  97
WAYCROSS*      MOSUNNY   96  74  48 W7G17     30.09F HX 107
DOUGLAS*       MOSUNNY   91  68  46 W7G16     30.11S HX  95
$$




USA.gov is the U.S. government's official web portal to all federal, state and local government web resources and services.